Theta_e
312 313 314 316 318 317 317 316 317 317 317 317 318 318 319 320 320 321 321 322 323 324 323 321 322 322 323 324 326 329 336 343 350 350 351 352 353 353 351 349 349 350 351 352
312 313 314 315 318 317 317 317 317 317 317 319 318 318 319 320 320 321 322 323 326 327 327 328 327 325 325 326 327 327 333 341 350 347 349 349 351 352 351 348 348 351 351 351
313 314 315 316 317 318 318 318 318 318 318 318 318 319 320 319 321 321 324 326 327 328 329 331 331 330 328 326 328 332 331 339 348 347 349 352 352 352 351 349 352 353 352 352
314 316 318 318 318 318 319 318 318 318 318 318 319 318 321 320 320 321 326 327 328 329 331 332 332 331 330 329 327 326 335 341 344 348 347 349 349 350 349 351 353 351 348 347
317 317 318 318 318 318 318 317 317 318 320 320 320 319 321 320 320 323 326 327 328 329 330 331 333 332 332 332 331 331 335 341 343 346 347 348 349 348 349 348 347 342 340 337
317 317 317 318 317 317 318 318 320 320 320 322 320 320 320 321 320 327 326 326 326 327 327 328 329 330 332 334 337 338 338 340 342 344 346 349 349 347 344 342 340 336 334 334
318 318 318 318 318 318 319 320 321 321 321 320 321 321 320 326 326 326 326 325 325 325 325 325 326 327 328 331 333 335 337 337 337 337 337 339 341 339 338 336 332 330 328 328
318 319 319 319 320 320 320 321 319 321 321 321 321 320 326 326 325 325 326 326 326 326 326 325 324 323 323 323 324 325 326 327 328 328 328 329 331 328 328 330 327 326 325 325
319 321 321 321 320 320 321 322 322 322 322 322 320 326 326 326 326 325 324 323 323 323 323 324 325 323 322 322 324 324 324 324 323 324 325 326 327 327 326 330 330 325 326 325
320 323 321 321 322 322 323 321 322 322 325 326 321 323 323 329 328 325 323 323 322 322 322 322 323 324 323 322 322 321 321 320 319 320 320 320 321 321 323 325 325 326 327 328
321 323 325 323 322 322 323 322 322 325 325 327 326 324 325 327 327 326 324 322 322 322 322 321 321 320 320 320 319 318 317 317 317 316 316 316 316 316 316 318 319 321 323 324
322 323 326 324 322 321 323 324 324 328 326 325 325 328 326 326 327 326 324 321 321 321 321 319 319 318 317 316 316 315 315 315 314 313 313 314 314 315 315 316 316 316 316 317
323 323 327 325 323 321 323 323 323 325 329 330 333 328 324 325 325 324 324 322 320 319 318 318 317 317 316 315 314 314 314 313 313 312 312 312 312 313 313 313 313 313 313 314
321 326 326 326 324 325 325 323 323 325 332 327 325 324 324 323 321 320 320 318 318 318 317 317 317 316 315 315 314 314 313 312 311 311 311 311 311 311 311 311 311 311 310 310
324 327 323 320 318 318 319 319 319 320 321 320 318 317 317 316 316 317 318 317 318 318 317 316 316 316 315 314 313 313 311 311 310 310 309 309 309 309 309 309 309 309 309 309
322 324 321 320 317 316 317 316 315 315 316 316 316 316 315 316 318 318 319 318 317 317 316 316 316 315 314 313 312 311 311 310 309 309 309 308 308 308 307 307 307 307 307 308
322 322 321 320 318 317 315 315 315 315 315 315 315 316 318 318 319 319 318 318 318 317 317 316 315 314 313 313 312 311 310 309 308 308 307 307 306 306 306 306 306 306 307 308
322 322 320 317 316 314 317 315 315 316 316 316 317 317 317 320 319 318 317 317 317 316 315 315 314 313 312 311 310 310 309 308 307 307 306 306 305 305 304 305 305 306 306 305
319 320 322 319 318 316 315 319 318 319 319 319 319 319 319 319 318 318 317 316 315 315 314 313 312 311 310 309 309 308 308 307 306 305 305 304 304 304 304 304 303 302 302 300
318 318 320 320 322 318 322 320 319 317 316 320 319 319 318 317 319 317 316 315 315 313 312 312 311 310 309 309 308 307 306 305 304 304 303 303 303 302 301 301 300 295 296 296
319 321 323 319 322 319 318 318 317 319 323 319 317 317 317 318 318 316 315 315 313 312 311 310 309 309 308 307 305 305 304 303 303 303 302 301 300 299 298 295 294 295 295 295
321 322 322 320 319 320 318 318 318 321 318 317 315 316 316 316 315 314 314 313 313 311 310 309 308 307 306 304 303 303 302 302 301 299 298 297 297 293 293 293 293 293 294 295
323 320 324 321 319 319 317 318 317 315 314 314 314 314 315 315 314 313 313 312 311 309 308 308 306 305 303 302 302 302 301 298 297 296 296 293 292 292 292 292 292 292 293 294
319 318 318 319 317 316 315 315 313 313 313 313 314 314 313 313 312 311 310 310 309 308 307 305 303 303 302 301 300 298 296 295 295 293 291 291 291 291 291 291 291 292 293 293
315 316 316 316 315 312 311 312 312 312 313 313 312 311 310 310 309 309 309 308 307 305 304 302 301 301 301 299 296 295 294 292 290 290 290 290 290 290 290 290 290 291 292 292
311 312 314 313 313 313 313 313 312 313 311 310 309 309 308 308 307 306 306 304 303 302 301 301 300 299 296 295 294 293 289 289 288 288 288 288 288 289 289 290 290 292 292 292
Wind_Speed
19 16 18 22 19 12 14 18 12 14 11 21 20 20 17 11 10 9 9 4 3 5 5 5 8 10 11 13 16 18 19 17 17 17 19 20 22 21 20 19 16 15 15 14
14 20 20 20 18 13 11 14 16 13 12 13 17 15 16 9 11 6 2 2 2 4 5 5 5 5 4 8 10 13 16 15 17 16 16 16 17 18 18 17 16 15 14 13
18 17 17 13 16 18 14 14 12 8 8 11 7 14 14 12 8 7 5 3 4 6 7 7 8 7 5 5 4 7 11 14 15 16 14 13 11 13 15 16 14 13 13 13
16 5 16 18 18 17 16 12 9 10 8 11 13 10 14 15 12 8 4 4 5 7 8 9 9 9 7 5 4 3 5 8 12 14 15 15 14 14 14 14 14 13 12 12
12 13 19 18 16 12 8 7 11 11 11 10 11 8 10 9 11 12 3 6 8 8 9 10 11 12 12 11 8 5 1 3 7 10 14 15 16 12 10 10 13 13 12 11
11 11 13 12 11 13 4 9 6 6 8 11 16 11 12 14 12 8 5 7 7 7 9 11 14 14 15 15 14 11 8 5 3 6 9 11 11 11 12 12 13 12 11 11
9 14 8 7 12 11 13 12 7 8 9 9 7 7 7 9 6 4 8 8 8 8 9 10 11 14 16 18 17 16 15 14 11 10 8 7 7 8 11 12 8 8 9 11
13 13 14 11 12 11 16 15 7 9 8 7 8 7 6 7 8 8 8 7 6 6 7 8 9 11 14 16 17 16 14 13 11 10 8 7 4 3 2 4 2 7 9 10
14 8 4 7 6 8 12 11 4 6 1 7 5 7 6 7 8 8 7 6 5 4 4 4 5 6 7 9 9 9 9 9 9 8 6 5 5 5 4 4 7 10 12 14
8 10 7 8 8 5 9 10 8 9 8 12 7 7 6 15 13 11 9 5 3 2 1 2 3 4 4 4 6 8 8 8 8 7 8 7 6 6 6 7 9 11 13 15
10 5 9 9 9 12 8 10 8 6 4 6 8 1 8 9 13 12 7 2 2 5 5 4 4 2 4 4 6 7 7 7 7 7 7 7 7 7 8 8 10 11 12 14
3 5 10 6 5 4 5 8 8 7 9 7 9 9 5 3 9 6 5 1 6 6 5 5 4 4 4 5 5 5 7 8 8 9 10 10 11 11 12 12 13 14 16 16
7 4 6 5 5 4 7 7 8 4 4 12 9 3 4 6 6 8 7 3 6 5 3 2 2 3 3 4 6 8 8 10 11 12 13 13 14 15 16 16 17 19 21 23
3 6 11 4 3 7 8 9 9 11 7 10 13 12 10 9 8 9 12 13 8 5 1 2 1 2 4 6 9 11 11 12 13 15 16 17 18 19 20 21 22 23 24 26
3 7 5 2 4 2 4 8 10 13 13 9 10 8 7 9 12 12 10 9 7 5 3 2 4 6 9 11 12 13 15 16 16 18 19 21 22 23 24 25 25 26 27 28
1 4 5 6 3 5 8 11 13 15 14 13 14 15 13 5 5 5 1 2 4 4 4 5 6 8 11 12 15 16 17 19 20 21 22 23 24 25 27 27 28 28 29 29
6 6 6 7 2 5 11 15 17 16 12 9 12 6 4 6 5 5 5 4 5 7 7 7 8 10 13 16 17 19 20 22 22 24 25 26 26 28 29 28 29 30 30 29
7 7 4 3 5 7 6 5 4 3 5 7 9 8 7 6 7 6 6 7 7 8 8 10 12 15 18 20 22 22 23 24 25 26 27 27 27 29 30 30 30 30 28 28
3 4 3 3 7 7 9 3 1 3 3 3 6 6 5 5 7 12 6 4 8 9 10 14 17 19 22 23 24 24 26 26 27 27 28 28 28 30 30 29 29 30 30 29
6 4 4 2 3 2 7 5 2 1 6 6 4 4 8 7 8 3 5 10 13 15 16 18 21 23 24 25 24 25 27 27 28 28 29 29 29 29 29 29 30 33 29 29
8 6 8 5 3 4 5 4 1 4 5 3 4 7 8 9 8 10 13 13 14 16 18 20 22 23 24 24 25 27 28 28 29 29 29 31 30 29 28 33 30 28 27 30
7 7 4 4 3 6 6 6 5 6 3 6 8 10 13 13 13 13 14 13 14 17 20 22 22 23 24 25 26 27 28 29 29 30 31 30 27 30 30 29 31 30 29 28
5 2 5 7 2 5 4 3 4 5 8 10 12 12 10 12 13 13 13 15 15 20 22 23 23 25 26 25 26 27 29 29 30 30 29 28 31 30 28 29 29 28 25 24
4 4 3 3 7 3 2 4 6 7 8 9 8 9 10 12 12 14 15 16 16 22 22 23 24 25 27 26 26 27 27 28 27 28 29 28 29 29 28 27 26 25 24 22
3 7 6 4 3 3 5 4 4 6 6 7 6 7 9 11 15 16 16 17 19 22 23 23 25 25 27 27 26 25 26 26 27 26 27 27 26 25 26 25 25 24 27 25
6 2 4 1 6 2 4 6 5 4 6 7 9 12 13 14 16 17 16 20 21 21 25 24 24 25 27 27 26 24 26 24 24 26 24 24 26 25 24 24 29 25 28 32
Wind_Direction
193 203 207 201 208 215 198 207 191 209 175 195 219 216 235 217 220 213 212 216 298 336 335 293 248 250 256 246 238 230 223 220 212 214 213 216 217 217 215 217 219 221 221 224
178 212 202 203 210 210 205 210 198 191 183 219 200 226 237 207 217 229 187 170 34 342 4 10 352 355 327 293 274 237 226 219 216 221 223 225 227 218 214 211 212 216 217 222
191 199 206 209 205 211 204 214 182 201 190 223 249 238 220 227 211 165 127 82 47 11 1 9 13 9 340 294 272 233 222 219 221 221 222 221 225 206 205 206 206 211 215 219
205 184 186 201 198 209 209 209 247 221 206 232 197 249 200 212 205 185 139 63 42 30 22 30 28 23 8 347 310 270 228 219 220 217 220 219 216 216 211 202 195 195 193 189
181 175 197 200 204 203 232 189 214 226 222 245 188 246 172 186 203 162 111 69 51 44 41 37 37 33 30 27 27 24 318 214 215 213 218 218 228 214 199 182 176 181 176 178
145 201 191 196 202 203 166 183 170 211 221 224 225 213 206 182 219 130 97 75 74 71 63 52 49 47 42 43 51 56 65 77 150 198 207 217 219 210 188 175 174 175 181 190
161 176 159 186 174 175 199 193 189 208 207 237 119 209 273 104 123 137 123 107 91 81 74 65 58 57 53 54 58 64 69 73 81 93 101 120 146 162 162 154 177 183 203 208
190 173 184 176 199 181 199 202 235 227 214 199 143 239 126 115 130 130 120 112 101 74 67 62 63 66 70 67 64 69 73 74 72 71 72 78 88 112 127 192 234 226 239 243
197 140 143 210 192 244 167 223 327 284 284 281 225 115 131 160 159 157 133 107 79 66 63 48 64 63 69 65 53 51 58 60 50 48 44 37 13 346 319 280 258 253 254 257
199 156 182 152 179 170 269 167 195 218 258 250 234 244 279 177 176 165 157 125 85 40 34 46 37 46 38 62 60 47 48 52 45 37 27 15 8 356 328 297 282 276 268 262
163 224 157 185 207 193 175 208 232 301 288 251 264 207 36 176 180 183 159 127 1 336 333 347 2 50 83 61 43 34 26 25 19 12 1 345 336 326 313 303 293 286 277 268
166 225 168 176 50 329 315 292 212 222 237 252 283 284 66 100 159 185 195 284 0 339 356 3 31 48 41 35 21 23 3 350 348 341 330 322 316 311 300 293 290 285 280 275
172 199 182 184 187 181 229 205 256 287 316 256 248 241 106 131 173 203 242 282 318 327 356 63 98 80 48 12 353 345 339 335 328 322 315 308 303 298 293 288 283 278 274 270
168 193 220 252 58 144 202 214 221 222 220 243 238 253 162 187 233 266 279 297 304 279 253 40 28 20 351 342 336 329 325 321 316 310 305 299 295 291 288 285 282 278 276 273
187 201 221 80 117 166 237 211 206 223 227 242 257 249 263 288 293 290 292 291 273 235 238 283 312 327 324 326 324 319 320 315 311 306 302 297 294 291 288 285 283 281 279 277
162 161 193 189 176 223 242 234 237 238 243 253 262 269 274 286 282 285 321 269 249 251 268 287 300 314 313 318 316 317 312 311 308 303 297 296 293 291 289 287 285 283 281 278
165 159 192 220 189 252 253 240 236 237 233 252 247 277 359 284 281 296 311 292 291 300 296 293 303 304 313 312 313 307 307 306 302 299 297 296 296 293 291 290 287 285 284 283
172 192 155 182 190 227 82 91 25 298 235 232 248 277 283 293 305 292 298 309 311 311 308 311 311 314 313 314 309 308 305 303 301 299 299 298 297 295 294 291 289 289 288 284
220 159 184 209 201 323 206 114 228 245 164 34 299 285 310 316 309 270 269 344 318 320 311 311 312 312 312 309 310 308 305 304 303 302 301 301 300 297 295 293 293 292 288 288
144 208 174 178 223 250 77 114 70 351 247 41 11 359 349 338 283 24 323 318 318 314 310 312 310 308 306 309 310 305 303 303 303 304 303 301 299 297 294 291 293 290 280 281
169 171 193 190 250 293 96 121 87 258 54 32 347 315 301 294 306 304 309 305 308 303 307 308 302 302 305 306 306 302 302 301 304 302 302 300 298 294 296 292 288 284 280 281
168 165 187 165 193 253 137 153 247 35 324 322 307 297 298 301 303 301 298 305 307 303 307 304 305 305 305 305 305 302 302 305 307 305 301 299 299 298 290 286 286 283 280 277
196 196 171 188 191 102 140 53 5 326 313 315 309 315 311 290 296 308 311 305 305 306 305 307 307 305 303 306 308 305 308 310 306 303 301 302 297 294 289 285 283 282 278 273
172 181 226 187 158 204 254 264 284 294 303 307 326 321 317 309 314 308 308 308 307 307 310 310 307 305 307 310 311 309 308 309 308 307 300 300 296 294 291 286 280 277 275 273
45 168 208 222 173 253 121 38 354 321 324 325 334 325 322 316 310 310 308 308 309 308 308 310 308 307 309 316 311 309 312 314 306 303 301 298 296 295 293 288 281 276 273 265
179 187 207 46 83 336 44 22 11 20 25 2 335 323 322 319 313 314 311 311 310 314 312 308 312 319 312 309 309 311 314 308 305 303 302 300 299 296 293 293 297 292 279 284